铱星星座 159星 (IRIDIUM 159)

导读

IRIDIUM 159是美国铱星通信公司运营的第二代低轨通信卫星(Iridium-NEXT星座),于2018年7月25日发射。作为全球覆盖卫星通信系统的组成部分,它为极地、海洋、偏远地区等提供全天候语音和数据通信服务,同时搭载托管有效载荷支持对地观测任务,设计使用寿命达12.5-15年,助力延续铱星系统服务至2030年后。

基本信息
目录编号:
43578
目录名称:
IRIDIUM 159
国际标识:
2018-061K
轨道中心:
EARTH
卫星名称:
铱星星座 159星
卫星全名:
铱星星座 159星 (IRIDIUM 159)
卫星状态:
在轨 (已飞行2970 天)
发射日期:
2018-07-25 UTC
国别 :
美国 (US)
星等 :
--
轨道信息
数据来源 国际轨道数据 AOE轨道数据
星历时间 2026-09-10T17:26:46+0800
18小时前
查看轨道信息
2026-09-10T06:00:00+0800
1天前
查看轨道信息
半长轴 7155.805km 7155.804km
偏心率 0.0002201 0.0002196
轨道倾角 86.400° 86.401°
近地点辐角 95.013° 94.139°
升交点赤经 21.066° 21.266°
平近点角 265.132° 325.111°
近地点 776.093km 776.095km
远地点 779.243km 779.239km
周期 100.403分钟 100.403分钟
每日圈数 14.342177 14.342179
详细信息
平衡模式:
三轴稳定
覆盖范围:
全球
运营商:
铱星通信公司
运营商所在国:
美国
制造商(研发单位):
阿莱尼亚宇航公司
制造商所在国:
意大利
使用方式:
暂无
卫星简介
铱星(Iridium)是由共66个运作中的通信卫星组成的卫星通信系统。这个系统原本规划77个通信卫星,所以用原子序数为77的铱元素来命名。铱卫星允许人们使用手持型电子设备进行全球性的语音及数据通讯。该卫星仍在工作。
2D轨道图
3D轨道图
轨道高度分析图
轨道倾角分析图
轨道综合分析图
查看轨道综合分析图
交会数据列表
事件ID 空间交会对象 最接近时刻(TCA) 交会距离 交会风险概率(CRP) 交会风险指数(CRI) 操作
CDM_260904-052800-451204-357826
2026-09-04T
05:28:02+0000
1.561 km
极远距离
5.906845E-6 低风险 0.5
CDM_260911-142203-705404-357827
2026-09-11T
14:22:38+0000
2.245 km
极远距离
2.133984E-6 低风险 0.42
CDM_260904-034700-451204-357826
2026-09-04T
03:47:39+0000
2.308 km
极远距离
2.056478E-6 低风险 0.41
与全量物体交会距离演化趋势
与全量物体交会风险概率演化趋势